Regional Weather Roundup
Issued by NWS

Home | Current Version | Previous Version | Text Only | Print | Product List | Glossary On
Versions: 1 2 3 4 5 6 7 8 9 10 11 12 13 14 15 16 17 18 19 20 21 22 23 24 25 26 27 28 29 30 31 32 33 34 35 36 37 38 39 40 41 42 43 44 45 46 47 48 49 50
000
ASUS44 KOUN 241210
RWROK

WEATHER ROUNDUP FOR OKLAHOMA
NATIONAL WEATHER SERVICE NORMAN OK
700 AM CDT WED MAY 24 2017

NOTE: "FAIR" INDICATES FEW OR NO CLOUDS BELOW 12,000 FEET WITH NO
      SIGNIFICANT WEATHER AND/OR OBSTRUCTIONS TO VISIBILITY.

OKZ001>007-009>012-014-015-017-241300-
NORTHWEST OKLAHOMA AND THE PANHANDLE

CITY           SKY/WX    TMP DP  RH WIND       PRES   REMARKS
GAGE           CLEAR     42  39  89 W5        29.90F
6HR MIN TEMP:  41; 6HR MAX TEMP:  48;

GUYMON         CLEAR     40  38  93 CALM      29.91F
ENID/WOODRING  CLEAR     50  43  76 NW9       29.84S
$$

OKZ016-021>023-033>039-044-045-241300-
SOUTHWEST OKLAHOMA

CITY           SKY/WX    TMP DP  RH WIND       PRES   REMARKS
LAWTON/REGL    CLEAR     48  46  93 W3        29.87F
6HR MIN TEMP:  46; 6HR MAX TEMP:  52;

LAWTON/FT SILL CLEAR     53  45  75 NW7       29.86F
FREDERICK      CLEAR     49  44  83 NW5       29.86S
CLINTON        CLEAR     48  41  76 NW8       29.90F
HOBART         CLEAR     46  42  86 NW6       29.90S
ALTUS AFB      CLEAR     48  42  77 NW8       29.89S
$$

OKZ018>020-024>031-241300-
CENTRAL OKLAHOMA

CITY           SKY/WX    TMP DP  RH WIND       PRES   REMARKS
OKLAHOMA CITY  CLEAR     50  43  77 NW10      29.85S
6HR MIN TEMP:  48; 6HR MAX TEMP:  55;

OKC/WILEY POST CLEAR     51  44  77 NW12      29.85S
OKC/TINKER AFB CLEAR     51  42  71 NW12      29.83S
STILLWATER     CLEAR     49  42  77 NW8       29.83R
GUTHRIE        PTCLDY    49  43  80 NW7       29.85R
$$

OKZ008-013-054>072-241300-
NORTHEAST OKLAHOMA

CITY           SKY/WX    TMP DP  RH WIND       PRES   REMARKS
TULSA          CLEAR     52  47  83 NW10      29.78R
6HR MIN TEMP:  51; 6HR MAX TEMP:  55;

TULSA/JONES    PTCLDY    53  45  74 VRB5      29.80R
PONCA CITY     CLEAR     48  42  80 NW8       29.82S
BARTLESVILLE   CLEAR     50  45  83 VRB3      29.79S
MUSKOGEE       CLEAR     51  48  89 W7        29.79R
$$

OKZ032-040>043-046>053-073>077-241300-
SOUTH CENTRAL/SOUTHEAST OKLAHOMA

CITY           SKY/WX    TMP DP  RH WIND       PRES   REMARKS
ARDMORE/DWNTWN CLEAR     52  45  76 CALM      29.84S
MCALESTER      CLEAR     52  46  80 NW6       29.80R
$$





USA.gov is the U.S. government's official web portal to all federal, state and local government web resources and services.